Location: La Tine
(46.4708°N, 7.0525°E)
Time: 08:25:04
(UTC+00:00)

Cosmos 1833 Rocket - Pass Details

Date: 20 January 2021
Orbit: 833 x 839 km, 71.0° (Epoch: 24 February)

Event Time Altitude Azimuth Distance (km) Brightness Sun altitude
Rises 17:47:37 0° 340° (NNW) 3,392 5.9 -15.1°
Reaches altitude 10° 17:50:49 10° 358° (N) 2,454 5.0 -15.6°
Enters shadow 17:54:45 19° 43° (NE) 1,890 4.1 -16.3°
